owner,sensor,date,latitude,longitude,vertical_datum,wind_speed,wind_to_direction,wind_speed_of_gust,qcFlag 
WAVCIS,ioos:station:WAVCIS:CSI09:1,2008-01-01T00:00:00Z,29.1015,-89.9782,0.0,4.802,29.0,,'11111222,11111222,99999999' 
WAVCIS,ioos:station:WAVCIS:CSI09:1,2008-01-01T01:00:00Z,29.1015,-89.9782,0.0,5.05,28.0,,'11111222,11111222,99999999' 
WAVCIS,ioos:station:WAVCIS:CSI09:1,2008-01-01T02:00:00Z,29.1015,-89.9782,0.0,3.853,25.0,,'11111222,11111222,99999999' 
WAVCIS,ioos:station:WAVCIS:CSI09:1,2008-01-01T03:00:00Z,29.1015,-89.9782,0.0,2.64,18.0,,'11111222,11111222,99999999' 
WAVCIS,ioos:station:WAVCIS:CSI09:1,2008-01-01T04:00:00Z,29.1015,-89.9782,0.0,2.848,352.0,,'11111222,11111222,99999999' 
WAVCIS,ioos:station:WAVCIS:CSI09:1,2008-01-01T05:00:00Z,29.1015,-89.9782,0.0,3.041,343.0,,'11111222,11111222,99999999' 
WAVCIS,ioos:station:WAVCIS:CSI09:1,2008-01-01T06:00:00Z,29.1015,-89.9782,0.0,3.691,333.0,,'11111222,11111222,99999999' 
WAVCIS,ioos:station:WAVCIS:CSI09:1,2008-01-01T07:00:00Z,29.1015,-89.9782,0.0,4.161,315.0,,'11111222,11111222,99999999' 
WAVCIS,ioos:station:WAVCIS:CSI09:1,2008-01-01T08:00:00Z,29.1015,-89.9782,0.0,11.37,325.0,,'11111222,11111222,99999999' 
WAVCIS,ioos:station:WAVCIS:CSI09:1,2008-01-01T09:00:00Z,29.1015,-89.9782,0.0,16.48,347.0,,'11111222,11111222,99999999' 
WAVCIS,ioos:station:WAVCIS:CSI09:1,2008-01-01T10:00:00Z,29.1015,-89.9782,0.0,17.12,354.0,,'11111222,11111222,99999999' 
WAVCIS,ioos:station:WAVCIS:CSI09:1,2008-01-01T11:00:00Z,29.1015,-89.9782,0.0,16.07,356.0,,'11111222,11111222,99999999' 
WAVCIS,ioos:station:WAVCIS:CSI09:1,2008-01-01T12:00:00Z,29.1015,-89.9782,0.0,17.6,357.0,,'11111222,11111222,99999999' 
WAVCIS,ioos:station:WAVCIS:CSI09:1,2008-01-01T13:00:00Z,29.1015,-89.9782,0.0,17.55,1.0,,'11111222,11111222,99999999' 
WAVCIS,ioos:station:WAVCIS:CSI09:1,2008-01-01T14:00:00Z,29.1015,-89.9782,0.0,15.61,6.0,,'11111222,11111222,99999999' 
WAVCIS,ioos:station:WAVCIS:CSI09:1,2008-01-01T15:00:00Z,29.1015,-89.9782,0.0,15.33,0.0,,'11111222,11144222,99999999' 
WAVCIS,ioos:station:WAVCIS:CSI09:1,2008-01-01T16:00:00Z,29.1015,-89.9782,0.0,15.24,357.0,,'11111222,11111222,99999999' 
WAVCIS,ioos:station:WAVCIS:CSI09:1,2008-01-01T17:00:00Z,29.1015,-89.9782,0.0,14.68,355.0,,'11111222,11111222,99999999' 
WAVCIS,ioos:station:WAVCIS:CSI09:1,2008-01-01T18:00:00Z,29.1015,-89.9782,0.0,14.16,353.0,,'11111222,11111222,99999999' 
WAVCIS,ioos:station:WAVCIS:CSI09:1,2008-01-01T19:00:00Z,29.1015,-89.9782,0.0,14.53,349.0,,'11111222,11111222,99999999' 
WAVCIS,ioos:station:WAVCIS:CSI09:1,2008-01-01T20:00:00Z,29.1015,-89.9782,0.0,13.87,351.0,,'11111222,11111222,99999999' 
WAVCIS,ioos:station:WAVCIS:CSI09:1,2008-01-01T21:00:00Z,29.1015,-89.9782,0.0,13.53,354.0,,'11111222,11111222,99999999' 
WAVCIS,ioos:station:WAVCIS:CSI09:1,2008-01-01T22:00:00Z,29.1015,-89.9782,0.0,13.27,354.0,,'11111222,11111222,99999999' 
WAVCIS,ioos:station:WAVCIS:CSI09:1,2008-01-01T23:00:00Z,29.1015,-89.9782,0.0,12.82,356.0,,'11111222,11111222,99999999' 
WAVCIS,ioos:station:WAVCIS:CSI09:1,2008-01-02T00:00:00Z,29.1015,-89.9782,0.0,10.82,5.0,,'11111222,11111222,99999999' 
WAVCIS,ioos:station:WAVCIS:CSI09:1,2008-01-02T01:00:00Z,29.1015,-89.9782,0.0,10.94,353.0,,'11111222,11111222,99999999' 
WAVCIS,ioos:station:WAVCIS:CSI09:1,2008-01-02T02:00:00Z,29.1015,-89.9782,0.0,12.15,339.0,,'11111222,11111222,99999999' 
WAVCIS,ioos:station:WAVCIS:CSI09:1,2008-01-02T03:00:00Z,29.1015,-89.9782,0.0,10.0,338.0,,'11111222,11111222,99999999' 
WAVCIS,ioos:station:WAVCIS:CSI09:1,2008-01-02T04:00:00Z,29.1015,-89.9782,0.0,9.45,336.0,,'11111222,11111222,99999999' 
WAVCIS,ioos:station:WAVCIS:CSI09:1,2008-01-02T05:00:00Z,29.1015,-89.9782,0.0,9.47,328.0,,'11111222,11111222,99999999' 
WAVCIS,ioos:station:WAVCIS:CSI09:1,2008-01-02T06:00:00Z,29.1015,-89.9782,0.0,12.43,317.0,,'11111222,11111222,99999999' 
WAVCIS,ioos:station:WAVCIS:CSI09:1,2008-01-02T07:00:00Z,29.1015,-89.9782,0.0,11.66,327.0,,'11111222,11111222,99999999' 
WAVCIS,ioos:station:WAVCIS:CSI09:1,2008-01-02T08:00:00Z,29.1015,-89.9782,0.0,13.86,340.0,,'11111222,11111222,99999999' 
WAVCIS,ioos:station:WAVCIS:CSI09:1,2008-01-02T09:00:00Z,29.1015,-89.9782,0.0,15.01,351.0,,'11111222,11111222,99999999' 
WAVCIS,ioos:station:WAVCIS:CSI09:1,2008-01-02T10:00:00Z,29.1015,-89.9782,0.0,14.72,340.0,,'11111222,11111222,99999999' 
WAVCIS,ioos:station:WAVCIS:CSI09:1,2008-01-02T11:00:00Z,29.1015,-89.9782,0.0,15.65,336.0,,'11111222,11111222,99999999' 
WAVCIS,ioos:station:WAVCIS:CSI09:1,2008-01-02T12:00:00Z,29.1015,-89.9782,0.0,15.42,349.0,,'11111222,11111222,99999999' 
WAVCIS,ioos:station:WAVCIS:CSI09:1,2008-01-02T13:00:00Z,29.1015,-89.9782,0.0,16.68,350.0,,'11111222,11111222,99999999' 
WAVCIS,ioos:station:WAVCIS:CSI09:1,2008-01-02T14:00:00Z,29.1015,-89.9782,0.0,16.52,353.0,,'11111222,11111222,99999999' 
WAVCIS,ioos:station:WAVCIS:CSI09:1,2008-01-02T15:00:00Z,29.1015,-89.9782,0.0,13.54,340.0,,'11111222,11111222,99999999' 
WAVCIS,ioos:station:WAVCIS:CSI09:1,2008-01-02T16:00:00Z,29.1015,-89.9782,0.0,12.15,342.0,,'11111222,11111222,99999999' 
WAVCIS,ioos:station:WAVCIS:CSI09:1,2008-01-02T17:00:00Z,29.1015,-89.9782,0.0,11.04,347.0,,'11111222,11111222,99999999' 
WAVCIS,ioos:station:WAVCIS:CSI09:1,2008-01-02T18:00:00Z,29.1015,-89.9782,0.0,10.03,349.0,,'11111222,11111222,99999999' 
WAVCIS,ioos:station:WAVCIS:CSI09:1,2008-01-02T19:00:00Z,29.1015,-89.9782,0.0,10.13,349.0,,'11111222,11111222,99999999' 
WAVCIS,ioos:station:WAVCIS:CSI09:1,2008-01-02T20:00:00Z,29.1015,-89.9782,0.0,10.32,342.0,,'11111222,11111222,99999999' 
WAVCIS,ioos:station:WAVCIS:CSI09:1,2008-01-02T21:00:00Z,29.1015,-89.9782,0.0,9.6,344.0,,'11111222,11111222,99999999' 
WAVCIS,ioos:station:WAVCIS:CSI09:1,2008-01-02T22:00:00Z,29.1015,-89.9782,0.0,10.47,349.0,,'11111222,11111222,99999999' 
WAVCIS,ioos:station:WAVCIS:CSI09:1,2008-01-02T23:00:00Z,29.1015,-89.9782,0.0,10.12,345.0,,'11111222,11111222,99999999' 
WAVCIS,ioos:station:WAVCIS:CSI09:1,2008-01-03T00:00:00Z,29.1015,-89.9782,0.0,11.39,356.0,,'11111222,11111222,99999999' 
WAVCIS,ioos:station:WAVCIS:CSI09:1,2008-01-03T01:00:00Z,29.1015,-89.9782,0.0,11.97,351.0,,'11111222,11111222,99999999' 
WAVCIS,ioos:station:WAVCIS:CSI09:1,2008-01-03T02:00:00Z,29.1015,-89.9782,0.0,11.82,3.0,,'11111222,11111222,99999999' 
WAVCIS,ioos:station:WAVCIS:CSI09:1,2008-01-03T03:00:00Z,29.1015,-89.9782,0.0,12.04,16.0,,'11111222,11111222,99999999' 
WAVCIS,ioos:station:WAVCIS:CSI09:1,2008-01-03T04:00:00Z,29.1015,-89.9782,0.0,11.09,8.0,,'11111222,11111222,99999999' 
WAVCIS,ioos:station:WAVCIS:CSI09:1,2008-01-03T05:00:00Z,29.1015,-89.9782,0.0,11.21,10.0,,'11111222,11111222,99999999' 
WAVCIS,ioos:station:WAVCIS:CSI09:1,2008-01-03T06:00:00Z,29.1015,-89.9782,0.0,10.69,24.0,,'11111222,11111222,99999999' 
WAVCIS,ioos:station:WAVCIS:CSI09:1,2008-01-03T07:00:00Z,29.1015,-89.9782,0.0,10.89,16.0,,'11111222,11111222,99999999' 
WAVCIS,ioos:station:WAVCIS:CSI09:1,2008-01-03T08:00:00Z,29.1015,-89.9782,0.0,11.15,18.0,,'11111222,11111222,99999999' 
WAVCIS,ioos:station:WAVCIS:CSI09:1,2008-01-03T09:00:00Z,29.1015,-89.9782,0.0,10.19,20.0,,'11111222,11111222,99999999' 
WAVCIS,ioos:station:WAVCIS:CSI09:1,2008-01-03T10:00:00Z,29.1015,-89.9782,0.0,10.55,26.0,,'11111222,11111222,99999999' 
WAVCIS,ioos:station:WAVCIS:CSI09:1,2008-01-03T11:00:00Z,29.1015,-89.9782,0.0,10.85,30.0,,'11111222,11111222,99999999' 
WAVCIS,ioos:station:WAVCIS:CSI09:1,2008-01-03T12:00:00Z,29.1015,-89.9782,0.0,10.89,28.0,,'11111222,11111222,99999999' 
WAVCIS,ioos:station:WAVCIS:CSI09:1,2008-01-03T13:00:00Z,29.1015,-89.9782,0.0,10.07,31.0,,'11111222,11111222,99999999' 
WAVCIS,ioos:station:WAVCIS:CSI09:1,2008-01-03T14:00:00Z,29.1015,-89.9782,0.0,9.22,31.0,,'11111222,11111222,99999999' 
WAVCIS,ioos:station:WAVCIS:CSI09:1,2008-01-03T15:00:00Z,29.1015,-89.9782,0.0,9.33,45.0,,'11111222,11111222,99999999' 
WAVCIS,ioos:station:WAVCIS:CSI09:1,2008-01-03T16:00:00Z,29.1015,-89.9782,0.0,8.09,41.0,,'11111222,11111222,99999999' 
WAVCIS,ioos:station:WAVCIS:CSI09:1,2008-01-03T17:00:00Z,29.1015,-89.9782,0.0,7.35,56.0,,'11111222,11111222,99999999' 
WAVCIS,ioos:station:WAVCIS:CSI09:1,2008-01-03T18:00:00Z,29.1015,-89.9782,0.0,7.15,39.0,,'11111222,11111222,99999999' 
WAVCIS,ioos:station:WAVCIS:CSI09:1,2008-01-03T19:00:00Z,29.1015,-89.9782,0.0,7.97,33.0,,'11111222,11111222,99999999' 
WAVCIS,ioos:station:WAVCIS:CSI09:1,2008-01-03T20:00:00Z,29.1015,-89.9782,0.0,7.96,31.0,,'11111222,11111222,99999999' 
WAVCIS,ioos:station:WAVCIS:CSI09:1,2008-01-03T21:00:00Z,29.1015,-89.9782,0.0,7.87,38.0,,'11111222,11111222,99999999' 
WAVCIS,ioos:station:WAVCIS:CSI09:1,2008-01-03T22:00:00Z,29.1015,-89.9782,0.0,7.47,39.0,,'11111222,11111222,99999999' 
WAVCIS,ioos:station:WAVCIS:CSI09:1,2008-01-03T23:00:00Z,29.1015,-89.9782,0.0,7.01,42.0,,'11111222,11111222,99999999' 
WAVCIS,ioos:station:WAVCIS:CSI09:1,2008-01-04T00:00:00Z,29.1015,-89.9782,0.0,7.51,42.0,,'11111222,11111222,99999999' 
WAVCIS,ioos:station:WAVCIS:CSI09:1,2008-01-04T01:00:00Z,29.1015,-89.9782,0.0,9.04,45.0,,'11111222,11111222,99999999' 
WAVCIS,ioos:station:WAVCIS:CSI09:1,2008-01-04T02:00:00Z,29.1015,-89.9782,0.0,8.3,40.0,,'11111222,11111222,99999999' 
WAVCIS,ioos:station:WAVCIS:CSI09:1,2008-01-04T03:00:00Z,29.1015,-89.9782,0.0,9.54,56.0,,'11111222,11111222,99999999' 
WAVCIS,ioos:station:WAVCIS:CSI09:1,2008-01-04T04:00:00Z,29.1015,-89.9782,0.0,9.8,62.0,,'11111222,11111222,99999999' 
WAVCIS,ioos:station:WAVCIS:CSI09:1,2008-01-04T05:00:00Z,29.1015,-89.9782,0.0,10.61,58.0,,'11111222,11111222,99999999' 
WAVCIS,ioos:station:WAVCIS:CSI09:1,2008-01-04T06:00:00Z,29.1015,-89.9782,0.0,10.58,61.0,,'11111222,11111222,99999999' 
WAVCIS,ioos:station:WAVCIS:CSI09:1,2008-01-04T07:00:00Z,29.1015,-89.9782,0.0,10.8,69.0,,'11111222,11111222,99999999' 
WAVCIS,ioos:station:WAVCIS:CSI09:1,2008-01-04T08:00:00Z,29.1015,-89.9782,0.0,8.28,79.0,,'11111222,11111222,99999999' 
WAVCIS,ioos:station:WAVCIS:CSI09:1,2008-01-04T09:00:00Z,29.1015,-89.9782,0.0,7.53,85.0,,'11111222,11111222,99999999' 
WAVCIS,ioos:station:WAVCIS:CSI09:1,2008-01-04T10:00:00Z,29.1015,-89.9782,0.0,8.54,85.0,,'11111222,11111222,99999999' 
WAVCIS,ioos:station:WAVCIS:CSI09:1,2008-01-04T11:00:00Z,29.1015,-89.9782,0.0,10.99,68.0,,'11111222,11111222,99999999' 
WAVCIS,ioos:station:WAVCIS:CSI09:1,2008-01-04T12:00:00Z,29.1015,-89.9782,0.0,9.8,71.0,,'11111222,11111222,99999999' 
WAVCIS,ioos:station:WAVCIS:CSI09:1,2008-01-04T13:00:00Z,29.1015,-89.9782,0.0,11.37,78.0,,'11111222,11111222,99999999' 
WAVCIS,ioos:station:WAVCIS:CSI09:1,2008-01-04T14:00:00Z,29.1015,-89.9782,0.0,11.19,81.0,,'11111222,11111222,99999999' 
WAVCIS,ioos:station:WAVCIS:CSI09:1,2008-01-04T15:00:00Z,29.1015,-89.9782,0.0,11.83,86.0,,'11111222,11111222,99999999' 
WAVCIS,ioos:station:WAVCIS:CSI09:1,2008-01-04T16:00:00Z,29.1015,-89.9782,0.0,11.08,89.0,,'11111222,11111222,99999999' 
WAVCIS,ioos:station:WAVCIS:CSI09:1,2008-01-04T17:00:00Z,29.1015,-89.9782,0.0,12.34,82.0,,'11111222,11111222,99999999' 
WAVCIS,ioos:station:WAVCIS:CSI09:1,2008-01-04T18:00:00Z,29.1015,-89.9782,0.0,9.88,77.0,,'11111222,11111222,99999999' 
WAVCIS,ioos:station:WAVCIS:CSI09:1,2008-01-04T19:00:00Z,29.1015,-89.9782,0.0,9.55,77.0,,'11111222,11111222,99999999' 
WAVCIS,ioos:station:WAVCIS:CSI09:1,2008-01-04T20:00:00Z,29.1015,-89.9782,0.0,11.32,71.0,,'11111222,11111222,99999999' 
WAVCIS,ioos:station:WAVCIS:CSI09:1,2008-01-04T21:00:00Z,29.1015,-89.9782,0.0,11.91,70.0,,'11111222,11111222,99999999' 
WAVCIS,ioos:station:WAVCIS:CSI09:1,2008-01-04T22:00:00Z,29.1015,-89.9782,0.0,11.82,71.0,,'11111222,11111222,99999999' 
WAVCIS,ioos:station:WAVCIS:CSI09:1,2008-01-04T23:00:00Z,29.1015,-89.9782,0.0,10.9,70.0,,'11111222,11111222,99999999' 
WAVCIS,ioos:station:WAVCIS:CSI09:1,2008-01-05T00:00:00Z,29.1015,-89.9782,0.0,10.24,79.0,,'11111222,11111222,99999999' 
WAVCIS,ioos:station:WAVCIS:CSI09:1,2008-01-05T01:00:00Z,29.1015,-89.9782,0.0,9.64,83.0,,'11111222,11111222,99999999' 
WAVCIS,ioos:station:WAVCIS:CSI09:1,2008-01-05T02:00:00Z,29.1015,-89.9782,0.0,8.38,88.0,,'11111222,11111222,99999999' 
WAVCIS,ioos:station:WAVCIS:CSI09:1,2008-01-05T03:00:00Z,29.1015,-89.9782,0.0,9.53,88.0,,'11111222,11111222,99999999' 
WAVCIS,ioos:station:WAVCIS:CSI09:1,2008-01-05T04:00:00Z,29.1015,-89.9782,0.0,6.414,97.0,,'11111222,11111222,99999999' 
WAVCIS,ioos:station:WAVCIS:CSI09:1,2008-01-05T05:00:00Z,29.1015,-89.9782,0.0,6.045,98.0,,'11111222,11111222,99999999' 
WAVCIS,ioos:station:WAVCIS:CSI09:1,2008-01-05T06:00:00Z,29.1015,-89.9782,0.0,7.62,122.0,,'11111222,11111222,99999999' 
WAVCIS,ioos:station:WAVCIS:CSI09:1,2008-01-05T07:00:00Z,29.1015,-89.9782,0.0,8.85,124.0,,'11111222,11111222,99999999' 
WAVCIS,ioos:station:WAVCIS:CSI09:1,2008-01-05T08:00:00Z,29.1015,-89.9782,0.0,8.18,124.0,,'11111222,11111222,99999999' 
WAVCIS,ioos:station:WAVCIS:CSI09:1,2008-01-05T09:00:00Z,29.1015,-89.9782,0.0,6.31,124.0,,'11111222,11111222,99999999' 
WAVCIS,ioos:station:WAVCIS:CSI09:1,2008-01-05T10:00:00Z,29.1015,-89.9782,0.0,6.7,135.0,,'11111222,11111222,99999999' 
WAVCIS,ioos:station:WAVCIS:CSI09:1,2008-01-05T11:00:00Z,29.1015,-89.9782,0.0,8.26,139.0,,'11111222,11111222,99999999' 
WAVCIS,ioos:station:WAVCIS:CSI09:1,2008-01-05T12:00:00Z,29.1015,-89.9782,0.0,7.59,137.0,,'11111222,11111222,99999999' 
WAVCIS,ioos:station:WAVCIS:CSI09:1,2008-01-05T13:00:00Z,29.1015,-89.9782,0.0,7.49,132.0,,'11111222,11111222,99999999' 
WAVCIS,ioos:station:WAVCIS:CSI09:1,2008-01-05T14:00:00Z,29.1015,-89.9782,0.0,7.86,132.0,,'11111222,11111222,99999999' 
WAVCIS,ioos:station:WAVCIS:CSI09:1,2008-01-05T15:00:00Z,29.1015,-89.9782,0.0,6.594,126.0,,'11111222,11111222,99999999' 
WAVCIS,ioos:station:WAVCIS:CSI09:1,2008-01-05T16:00:00Z,29.1015,-89.9782,0.0,4.458,110.0,,'11111222,11111222,99999999' 
WAVCIS,ioos:station:WAVCIS:CSI09:1,2008-01-05T17:00:00Z,29.1015,-89.9782,0.0,5.597,119.0,,'11111222,11111222,99999999' 
WAVCIS,ioos:station:WAVCIS:CSI09:1,2008-01-05T18:00:00Z,29.1015,-89.9782,0.0,2.802,200.0,,'11111222,11111222,99999999' 
WAVCIS,ioos:station:WAVCIS:CSI09:1,2008-01-05T19:00:00Z,29.1015,-89.9782,0.0,0.546,220.0,,'11111222,11111222,99999999' 
WAVCIS,ioos:station:WAVCIS:CSI09:1,2008-01-05T20:00:00Z,29.1015,-89.9782,0.0,5.136,68.0,,'11111222,11111222,99999999' 
WAVCIS,ioos:station:WAVCIS:CSI09:1,2008-01-05T21:00:00Z,29.1015,-89.9782,0.0,4.154,135.0,,'11111222,11111222,99999999' 
WAVCIS,ioos:station:WAVCIS:CSI09:1,2008-01-05T22:00:00Z,29.1015,-89.9782,0.0,7.34,111.0,,'11111222,11111222,99999999' 
WAVCIS,ioos:station:WAVCIS:CSI09:1,2008-01-05T23:00:00Z,29.1015,-89.9782,0.0,6.813,118.0,,'11111222,11111222,99999999' 
WAVCIS,ioos:station:WAVCIS:CSI09:1,2008-01-06T00:00:00Z,29.1015,-89.9782,0.0,5.605,99.0,,'11111222,11111222,99999999' 
WAVCIS,ioos:station:WAVCIS:CSI09:1,2008-01-06T01:00:00Z,29.1015,-89.9782,0.0,9.22,114.0,,'11111222,11111222,99999999' 
WAVCIS,ioos:station:WAVCIS:CSI09:1,2008-01-06T02:00:00Z,29.1015,-89.9782,0.0,6.797,133.0,,'11111222,11111222,99999999' 
WAVCIS,ioos:station:WAVCIS:CSI09:1,2008-01-06T03:00:00Z,29.1015,-89.9782,0.0,6.185,135.0,,'11111222,11111222,99999999' 
WAVCIS,ioos:station:WAVCIS:CSI09:1,2008-01-06T04:00:00Z,29.1015,-89.9782,0.0,7.28,146.0,,'11111222,11111222,99999999' 
WAVCIS,ioos:station:WAVCIS:CSI09:1,2008-01-06T05:00:00Z,29.1015,-89.9782,0.0,7.36,141.0,,'11111222,11111222,99999999' 
WAVCIS,ioos:station:WAVCIS:CSI09:1,2008-01-06T06:00:00Z,29.1015,-89.9782,0.0,6.893,144.0,,'11111222,11111222,99999999' 
WAVCIS,ioos:station:WAVCIS:CSI09:1,2008-01-06T07:00:00Z,29.1015,-89.9782,0.0,6.429,148.0,,'11111222,11111222,99999999' 
WAVCIS,ioos:station:WAVCIS:CSI09:1,2008-01-06T08:00:00Z,29.1015,-89.9782,0.0,6.705,147.0,,'11111222,11111222,99999999' 
WAVCIS,ioos:station:WAVCIS:CSI09:1,2008-01-06T09:00:00Z,29.1015,-89.9782,0.0,6.451,148.0,,'11111222,11111222,99999999' 
WAVCIS,ioos:station:WAVCIS:CSI09:1,2008-01-06T10:00:00Z,29.1015,-89.9782,0.0,6.505,151.0,,'11111222,11111222,99999999' 
WAVCIS,ioos:station:WAVCIS:CSI09:1,2008-01-06T11:00:00Z,29.1015,-89.9782,0.0,7.19,154.0,,'11111222,11111222,99999999' 
WAVCIS,ioos:station:WAVCIS:CSI09:1,2008-01-06T12:00:00Z,29.1015,-89.9782,0.0,7.56,153.0,,'11111222,11111222,99999999' 
WAVCIS,ioos:station:WAVCIS:CSI09:1,2008-01-06T13:00:00Z,29.1015,-89.9782,0.0,7.28,145.0,,'11111222,11111222,99999999' 
WAVCIS,ioos:station:WAVCIS:CSI09:1,2008-01-06T14:00:00Z,29.1015,-89.9782,0.0,7.14,147.0,,'11111222,11111222,99999999' 
WAVCIS,ioos:station:WAVCIS:CSI09:1,2008-01-06T15:00:00Z,29.1015,-89.9782,0.0,6.926,143.0,,'11111222,11111222,99999999' 
WAVCIS,ioos:station:WAVCIS:CSI09:1,2008-01-06T16:00:00Z,29.1015,-89.9782,0.0,7.4,150.0,,'11111222,11111222,99999999' 
WAVCIS,ioos:station:WAVCIS:CSI09:1,2008-01-06T17:00:00Z,29.1015,-89.9782,0.0,7.04,149.0,,'11111222,11111222,99999999' 
WAVCIS,ioos:station:WAVCIS:CSI09:1,2008-01-06T18:00:00Z,29.1015,-89.9782,0.0,6.577,143.0,,'11111222,11111222,99999999' 
WAVCIS,ioos:station:WAVCIS:CSI09:1,2008-01-06T19:00:00Z,29.1015,-89.9782,0.0,6.724,146.0,,'11111222,11111222,99999999' 
WAVCIS,ioos:station:WAVCIS:CSI09:1,2008-01-06T20:00:00Z,29.1015,-89.9782,0.0,5.507,140.0,,'11111222,11111222,99999999' 
WAVCIS,ioos:station:WAVCIS:CSI09:1,2008-01-06T21:00:00Z,29.1015,-89.9782,0.0,6.098,150.0,,'11111222,11111222,99999999' 
WAVCIS,ioos:station:WAVCIS:CSI09:1,2008-01-06T22:00:00Z,29.1015,-89.9782,0.0,7.04,155.0,,'11111222,11111222,99999999' 
WAVCIS,ioos:station:WAVCIS:CSI09:1,2008-01-06T23:00:00Z,29.1015,-89.9782,0.0,6.069,137.0,,'11111222,11111222,99999999' 
WAVCIS,ioos:station:WAVCIS:CSI09:1,2008-01-07T00:00:00Z,29.1015,-89.9782,0.0,6.343,131.0,,'11111222,11111222,99999999' 
WAVCIS,ioos:station:WAVCIS:CSI09:1,2008-01-07T01:00:00Z,29.1015,-89.9782,0.0,6.664,128.0,,'11111222,11111222,99999999' 
WAVCIS,ioos:station:WAVCIS:CSI09:1,2008-01-07T02:00:00Z,29.1015,-89.9782,0.0,7.39,127.0,,'11111222,11111222,99999999' 
WAVCIS,ioos:station:WAVCIS:CSI09:1,2008-01-07T03:00:00Z,29.1015,-89.9782,0.0,7.23,127.0,,'11111222,11111222,99999999' 
WAVCIS,ioos:station:WAVCIS:CSI09:1,2008-01-07T04:00:00Z,29.1015,-89.9782,0.0,7.46,129.0,,'11111222,11111222,99999999' 
WAVCIS,ioos:station:WAVCIS:CSI09:1,2008-01-07T05:00:00Z,29.1015,-89.9782,0.0,7.72,128.0,,'11111222,11111222,99999999' 
WAVCIS,ioos:station:WAVCIS:CSI09:1,2008-01-07T06:00:00Z,29.1015,-89.9782,0.0,7.89,137.0,,'11111222,11111222,99999999' 
WAVCIS,ioos:station:WAVCIS:CSI09:1,2008-01-07T07:00:00Z,29.1015,-89.9782,0.0,8.0,131.0,,'11111222,11111222,99999999' 
WAVCIS,ioos:station:WAVCIS:CSI09:1,2008-01-07T08:00:00Z,29.1015,-89.9782,0.0,6.691,133.0,,'11111222,11111222,99999999' 
WAVCIS,ioos:station:WAVCIS:CSI09:1,2008-01-07T09:00:00Z,29.1015,-89.9782,0.0,6.896,127.0,,'11111222,11111222,99999999' 
WAVCIS,ioos:station:WAVCIS:CSI09:1,2008-01-07T10:00:00Z,29.1015,-89.9782,0.0,6.628,127.0,,'11111222,11111222,99999999' 
WAVCIS,ioos:station:WAVCIS:CSI09:1,2008-01-07T11:00:00Z,29.1015,-89.9782,0.0,7.25,128.0,,'11111222,11111222,99999999' 
WAVCIS,ioos:station:WAVCIS:CSI09:1,2008-01-07T12:00:00Z,29.1015,-89.9782,0.0,7.92,127.0,,'11111222,11111222,99999999' 
WAVCIS,ioos:station:WAVCIS:CSI09:1,2008-01-07T13:00:00Z,29.1015,-89.9782,0.0,7.68,127.0,,'11111222,11111222,99999999' 
WAVCIS,ioos:station:WAVCIS:CSI09:1,2008-01-07T14:00:00Z,29.1015,-89.9782,0.0,6.107,124.0,,'11111222,11111222,99999999' 
WAVCIS,ioos:station:WAVCIS:CSI09:1,2008-01-07T15:00:00Z,29.1015,-89.9782,0.0,6.6,133.0,,'11111222,11111222,99999999' 
WAVCIS,ioos:station:WAVCIS:CSI09:1,2008-01-07T16:00:00Z,29.1015,-89.9782,0.0,6.251,128.0,,'11111222,11111222,99999999' 
WAVCIS,ioos:station:WAVCIS:CSI09:1,2008-01-07T17:00:00Z,29.1015,-89.9782,0.0,5.506,124.0,,'11111222,11111222,99999999' 
WAVCIS,ioos:station:WAVCIS:CSI09:1,2008-01-07T18:00:00Z,29.1015,-89.9782,0.0,5.995,120.0,,'11111222,11111222,99999999' 
WAVCIS,ioos:station:WAVCIS:CSI09:1,2008-01-07T19:00:00Z,29.1015,-89.9782,0.0,5.717,126.0,,'11111222,11111222,99999999' 
WAVCIS,ioos:station:WAVCIS:CSI09:1,2008-01-07T20:00:00Z,29.1015,-89.9782,0.0,7.29,124.0,,'11111222,11111222,99999999' 
WAVCIS,ioos:station:WAVCIS:CSI09:1,2008-01-07T21:00:00Z,29.1015,-89.9782,0.0,9.1,127.0,,'11111222,11111222,99999999' 
WAVCIS,ioos:station:WAVCIS:CSI09:1,2008-01-07T22:00:00Z,29.1015,-89.9782,0.0,7.38,126.0,,'11111222,11111222,99999999' 
WAVCIS,ioos:station:WAVCIS:CSI09:1,2008-01-07T23:00:00Z,29.1015,-89.9782,0.0,7.44,123.0,,'11111222,11111222,99999999' 
WAVCIS,ioos:station:WAVCIS:CSI09:1,2008-01-08T00:00:00Z,29.1015,-89.9782,0.0,8.47,128.0,,'11111222,11111222,99999999' 
WAVCIS,ioos:station:WAVCIS:CSI09:1,2008-01-08T01:00:00Z,29.1015,-89.9782,0.0,9.06,118.0,,'11111222,11111222,99999999' 
WAVCIS,ioos:station:WAVCIS:CSI09:1,2008-01-08T02:00:00Z,29.1015,-89.9782,0.0,9.98,118.0,,'11111222,11111222,99999999' 
WAVCIS,ioos:station:WAVCIS:CSI09:1,2008-01-08T03:00:00Z,29.1015,-89.9782,0.0,8.45,123.0,,'11111222,11111222,99999999' 
WAVCIS,ioos:station:WAVCIS:CSI09:1,2008-01-08T04:00:00Z,29.1015,-89.9782,0.0,5.826,131.0,,'11111222,11111222,99999999' 
WAVCIS,ioos:station:WAVCIS:CSI09:1,2008-01-08T05:00:00Z,29.1015,-89.9782,0.0,6.021,137.0,,'11111222,11111222,99999999' 
WAVCIS,ioos:station:WAVCIS:CSI09:1,2008-01-08T06:00:00Z,29.1015,-89.9782,0.0,6.878,127.0,,'11111222,11111222,99999999' 
WAVCIS,ioos:station:WAVCIS:CSI09:1,2008-01-08T07:00:00Z,29.1015,-89.9782,0.0,8.77,134.0,,'11111222,11111222,99999999' 
WAVCIS,ioos:station:WAVCIS:CSI09:1,2008-01-08T08:00:00Z,29.1015,-89.9782,0.0,7.48,138.0,,'11111222,11111222,99999999' 
WAVCIS,ioos:station:WAVCIS:CSI09:1,2008-01-08T09:00:00Z,29.1015,-89.9782,0.0,6.978,135.0,,'11111222,11111222,99999999' 
WAVCIS,ioos:station:WAVCIS:CSI09:1,2008-01-08T10:00:00Z,29.1015,-89.9782,0.0,9.74,142.0,,'11111222,11111222,99999999' 
WAVCIS,ioos:station:WAVCIS:CSI09:1,2008-01-08T11:00:00Z,29.1015,-89.9782,0.0,7.29,152.0,,'11111222,11111222,99999999' 
WAVCIS,ioos:station:WAVCIS:CSI09:1,2008-01-08T12:00:00Z,29.1015,-89.9782,0.0,7.85,150.0,,'11111222,11111222,99999999' 
WAVCIS,ioos:station:WAVCIS:CSI09:1,2008-01-08T13:00:00Z,29.1015,-89.9782,0.0,8.4,148.0,,'11111222,11111222,99999999' 
WAVCIS,ioos:station:WAVCIS:CSI09:1,2008-01-08T14:00:00Z,29.1015,-89.9782,0.0,6.974,154.0,,'11111222,11111222,99999999' 
WAVCIS,ioos:station:WAVCIS:CSI09:1,2008-01-08T15:00:00Z,29.1015,-89.9782,0.0,6.913,155.0,,'11111222,11111222,99999999' 
WAVCIS,ioos:station:WAVCIS:CSI09:1,2008-01-08T16:00:00Z,29.1015,-89.9782,0.0,6.616,146.0,,'11111222,11111222,99999999' 
WAVCIS,ioos:station:WAVCIS:CSI09:1,2008-01-08T17:00:00Z,29.1015,-89.9782,0.0,7.37,150.0,,'11111222,11111222,99999999' 
WAVCIS,ioos:station:WAVCIS:CSI09:1,2008-01-08T18:00:00Z,29.1015,-89.9782,0.0,6.462,152.0,,'11111222,11111222,99999999' 
WAVCIS,ioos:station:WAVCIS:CSI09:1,2008-01-08T19:00:00Z,29.1015,-89.9782,0.0,6.264,149.0,,'11111222,11111222,99999999' 
WAVCIS,ioos:station:WAVCIS:CSI09:1,2008-01-08T20:00:00Z,29.1015,-89.9782,0.0,4.935,132.0,,'11111222,11111222,99999999' 
WAVCIS,ioos:station:WAVCIS:CSI09:1,2008-01-08T21:00:00Z,29.1015,-89.9782,0.0,5.449,137.0,,'11111222,11111222,99999999' 
WAVCIS,ioos:station:WAVCIS:CSI09:1,2008-01-08T22:00:00Z,29.1015,-89.9782,0.0,4.902,155.0,,'11111222,11111222,99999999' 
WAVCIS,ioos:station:WAVCIS:CSI09:1,2008-01-08T23:00:00Z,29.1015,-89.9782,0.0,5.181,168.0,,'11111222,11111222,99999999' 
WAVCIS,ioos:station:WAVCIS:CSI09:1,2008-01-09T00:00:00Z,29.1015,-89.9782,0.0,4.779,162.0,,'11111222,11111222,99999999' 
WAVCIS,ioos:station:WAVCIS:CSI09:1,2008-01-09T01:00:00Z,29.1015,-89.9782,0.0,5.313,162.0,,'11111222,11111222,99999999' 
WAVCIS,ioos:station:WAVCIS:CSI09:1,2008-01-09T02:00:00Z,29.1015,-89.9782,0.0,6.241,160.0,,'11111222,11111222,99999999' 
WAVCIS,ioos:station:WAVCIS:CSI09:1,2008-01-09T03:00:00Z,29.1015,-89.9782,0.0,7.18,171.0,,'11111222,11111222,99999999' 
WAVCIS,ioos:station:WAVCIS:CSI09:1,2008-01-09T04:00:00Z,29.1015,-89.9782,0.0,7.39,173.0,,'11111222,11111222,99999999' 
WAVCIS,ioos:station:WAVCIS:CSI09:1,2008-01-09T05:00:00Z,29.1015,-89.9782,0.0,7.62,177.0,,'11111222,11111222,99999999' 
WAVCIS,ioos:station:WAVCIS:CSI09:1,2008-01-09T06:00:00Z,29.1015,-89.9782,0.0,7.11,177.0,,'11111222,11111222,99999999' 
WAVCIS,ioos:station:WAVCIS:CSI09:1,2008-01-09T07:00:00Z,29.1015,-89.9782,0.0,6.64,176.0,,'11111222,11111222,99999999' 